Location: Asheville, NC
(35.6000°N, 82.5500°W)
Time: 19:40:38
(UTC-04:00)

STRAND 1 - Pass Details

Date: 11 March 2018
Orbit: 769 x 780 km, 98.5° (Epoch: 23 June)

Event Time Altitude Azimuth Distance (km) Brightness Sun altitude
Rises 21:47:34 0° 2° (N) 3,261 ? -27.6°
Reaches altitude 10° 21:50:04 10° 353° (N) 2,328 ? -28.1°
Maximum altitude 21:54:37 33° 290° (WNW) 1,281 ? -28.9°
Drops below altitude 10° 21:59:08 10° 228° (SW) 2,309 ? -29.8°
Sets 22:01:37 0° 218° (SW) 3,230 ? -30.3°
